Regional Weather Roundup
Issued by NWS

Home | Current Version | Previous Version | Text Only | Print | Product List | Glossary Off
Versions: 1 2 3 4 5 6 7 8 9 10 11 12 13 14 15 16 17 18 19 20 21 22 23 24 25 26 27 28 29 30 31 32 33 34 35 36 37 38 39 40 41 42 43 44 45 46 47 48 49 50

000
ASUS43 KFSD 031502
RWRSD

WEATHER ROUNDUP FOR SOUTH DAKOTA
NATIONAL WEATHER SERVICE SIOUX FALLS SD
1000 AM CDT FRI JUL 03 2015

NOTE: "FAIR" INDICATES FEW OR NO CLOUDS BELOW 12,000 FEET WITH NO
SIGNIFICANT WEATHER AND/OR OBSTRUCTIONS TO VISIBILITY.


SDZ001>005-009-010-012>017-031600-
NORTHWEST AND NORTH CENTRAL SOUTH DAKOTA

CITY           SKY/WX    TMP DP  RH WIND       PRES   REMARKS
BUFFALO          N/A     72  60  66 S3        30.01S
FAITH            N/A     74  61  63 W5        30.05S
MOBRIDGE       MOSUNNY   72  65  78 N5        30.00S HAZE
$$

SDZ012>016-024>037-041>051-057-063-072>074-031600-
SOUTHWEST AND SOUTH CENTRAL SOUTH DAKOTA

CITY           SKY/WX    TMP DP  RH WIND       PRES   REMARKS
RAPID CTY ARPT SUNNY     70  61  73 S6        30.09S
PIERRE         MOSUNNY   70  67  90 NW5       30.01S FOG
CUSTER         SUNNY     67  53  61 W5        30.20S HAZE
ELLSWORTH AFB  SUNNY     72  59  64 S6        30.08S
PHILIP         SUNNY     71  62  73 CALM      30.05S
PINE RIDGE     SUNNY     69  60  73 CALM      30.11S
WINNER         FAIR      73  62  68 VRB5      30.04S
$$

SDZ004>011-016>023-039-040-031600-
NORTHEAST SOUTH DAKOTA

CITY           SKY/WX    TMP DP  RH WIND       PRES   REMARKS
ABERDEEN       PTSUNNY   69  64  84 CALM      29.98S HAZE
WATERTOWN      SUNNY     69  63  81 SW5       29.99F
BROOKINGS      CLOUDY    63  59  88 W5        30.03F
SISSETON         N/A     74  65  73 W9        29.95S
$$

SDZ017-020-022-023-036>040-048>070-031600-
SOUTHEAST SOUTH DAKOTA

CITY           SKY/WX    TMP DP  RH WIND       PRES   REMARKS
SIOUX FALLS    CLOUDY    64  60  87 CALM      30.03S
HURON          MOSUNNY   64  63  96 CALM      30.00S
CHAMBERLAIN    CLOUDY    65  65 100 W3        30.03R FOG
MITCHELL       CLOUDY    64  64 100 SW5       30.02F FOG
YANKTON        CLOUDY    66  61  82 CALM      30.02S
$$

ABBREVIATIONS USED IN REMARKS
   TC - TEMPERATURE IN CELSIUS
  WCI - WIND CHILL INDEX
   HX - HEAT INDEX
  VSB - VISIBILITY



USA.gov is the U.S. government's official web portal to all federal, state and local government web resources and services.